This demonstration page uses our WeatherBlox Daily Observations layout. Learn more.

Left ArrowRight Arrow

Hourly Observations for April 12, 2017

Temp ( °F °C ) Dew Point ( °F °C ) Humidity (%) Winds ( mph kmh ) Pressure ( in mb ) Visibility ( mi km ) Precip ( " mm )
12:59 am 00:59 Mostly Clear 65 18.3 50 10 59 59 SSW 12 19 30.20 1023 10 16 0.00 0.00
1:59 am 01:59 Mostly Clear 64 17.8 51 10.6 63 63 SSW 10 17 30.19 1022 10 16 0.00 0.00
2:59 am 02:59 Mostly Clear 63 17.2 52 11.1 68 68 SSW 10 17 30.19 1022 10 16 0.00 0.00
3:59 am 03:59 Mostly Clear 63 17.2 52 11.1 68 68 SSW 14 22 30.18 1022 10 16 0.00 0.00
4:59 am 04:59 Mostly Clear 63 17.2 53 11.7 70 70 SW 14 22 30.18 1022 10 16 0.00 0.00
5:59 am 05:59 Partly Cloudy 62 16.7 53 11.7 73 73 SSW 10 17 30.18 1022 10 16 0.00 0.00
6:59 am 06:59 Partly Cloudy 62 16.7 54 12.2 75 75 SW 12 19 30.19 1023 10 16 0.00 0.00
7:59 am 07:59 Partly Cloudy 63 17.2 54 12.2 73 73 SW 12 19 30.22 1023 10 16 0.00 0.00
8:59 am 08:59 Partly Cloudy 66 18.9 55 12.8 68 68 WSW 12 19 30.22 1023 10 16 0.00 0.00
9:59 am 09:59 Partly Cloudy 68 20 55 12.8 63 63 W 8 13 30.22 1023 10 16 0.00 0.00
10:59 am 10:59 Partly Cloudy 71 21.7 55 12.8 57 57 W 7 11 30.23 1024 10 16 0.00 0.00
11:59 am 11:59 Partly Cloudy 73 22.8 54 12.2 51 51 WNW 8 13 30.24 1024 10 16 0.00 0.00
12:59 pm 12:59 Mostly Cloudy 78 25.6 54 12.2 43 43 NNE 10 17 30.22 1023 10 16 0.00 0.00
1:59 pm 13:59 Mostly Cloudy 76 24.4 53 11.7 45 45 NE 13 20 30.22 1023 10 16 0.00 0.00
2:59 pm 14:59 Mostly Cloudy 77 25 53 11.7 43 43 NNE 13 20 30.20 1023 10 16 0.00 0.00
3:59 pm 15:59 Mostly Cloudy 76 24.4 52 11.1 43 43 NNE 10 17 30.19 1023 10 16 0.00 0.00
4:59 pm 16:59 Mostly Cloudy 75 23.9 50 10 41 41 ENE 8 13 30.19 1023 10 16 0.00 0.00
5:59 pm 17:59 Mostly Cloudy 71 21.7 52 11.1 51 51 ENE 7 11 30.20 1023 10 16 0.00 0.00
6:59 pm 18:59 Mostly Cloudy 71 21.7 52 11.1 51 51 E 6 9 30.21 1023 10 16 0.00 0.00
7:59 pm 19:59 Mostly Cloudy 67 19.4 52 11.1 59 59 E 5 7 30.23 1024 10 16 0.00 0.00
8:59 pm 20:59 Mostly Cloudy 64 17.8 54 12.2 70 70 N 5 7 30.26 1025 10 16 0.00 0.00
9:59 pm 21:59 Mostly Cloudy 64 17.8 55 12.8 73 73 E 6 9 30.27 1025 10 16 0.00 0.00
10:59 pm 22:59 Mostly Cloudy 63 17.2 55 12.8 76 76 Calm 30.27 1025 10 16 0.00 0.00
11:59 pm 23:59 Partly Cloudy 62 16.7 55 12.8 78 78 VRB 3 6 30.26 1025 10 16 0.00 0.00

Powered by AerisWeather